Flag for Austria Weather past 2 weeks in St. Pölten, Lower Austria, Austria

Now
50 °F

Broken clouds.


Feels Like: 45 °F
Forecast: 41 / 52 °F
Wind: 14 mph from Southwest

Location: Tulln Airport

Current Time: Mar 29, 2015 at 11:45:32 AM

Latest Report: Mar 29, 2015 at 10:50 AM


Visibility: 19 mi

Pressure: 29.86 "Hg

Humidity: 82%

Dew point: 45 °F

Location of St. PöltenLocation

Historic Weather in St. Pölten — Graph

°F

St. Pölten temperature yesterday

Maximum temperature yesterday: 50 °F (at 11:50 AM)
Minimum temperature yesterday: 37 °F (at 8:50 PM)
Average temperature yesterday: 46 °F

Past Weeks' High & Low Weather Summary

 TemperatureHumidityPressure
High63 °F (Mar 24, 2:50 PM)100% (Mar 25, 4:50 AM)30.51 "Hg (Mar 25, 4:50 AM)
Low27 °F (Mar 21, 5:50 AM)29% (Mar 21, 2:50 PM)29.68 "Hg (Mar 26, 4:50 AM)
Average47 °F65%30.12 "Hg
* Reported Mar 14 8:50 AM — Mar 29 9:50 AM, St. Pölten, Weather by CustomWeather, © 2015

Note: Actual official high and low records may vary slightly from our data, if they occured in-between our weather recording intervals... More about our weather records

Advertising

St. Pölten weather history for previous 24 hours

 ConditionsComfort  
Time TempWeatherWind HumidityBarometerVisibility
9:50 AM
Sun, Mar 29
48 °FBroken clouds.16 mph82%29.89 "Hg12 mi
8:50 AM45 °FLight rain. Partly sunny.14 mph93%29.89 "Hg11 mi
7:50 AM39 °FLight rain. Partly sunny.2 mph93%29.92 "Hg8 mi
6:50 AM36 °FLight rain. Passing clouds.2 mph93%29.92 "Hg8 mi
5:50 AM34 °FLight rain. Passing clouds.1 mph93%29.95 "Hg9 mi
9:50 PM
Sat, Mar 28
37 °FPassing clouds.5 mph75%30.04 "Hg16 mi
8:50 PM37 °FPassing clouds.5 mph75%30.07 "Hg16 mi
7:50 PM39 °FPassing clouds.3 mph70%30.07 "Hg19 mi
6:50 PM46 °FPassing clouds.5 mph57%30.07 "Hg19 mi
5:50 PM48 °FPartly sunny.5 mph50%30.07 "Hg19 mi
4:50 PM50 °FPartly sunny.12 mph47%30.07 "Hg16 mi
3:50 PM50 °FPartly sunny.12 mph47%30.07 "Hg19 mi
2:50 PM50 °FPartly sunny.13 mph47%30.07 "Hg19 mi
1:50 PM50 °FPartly sunny.15 mph47%30.09 "Hg19 mi
12:50 PM50 °FPartly sunny.18 mph47%30.12 "Hg19 mi
11:50 AM50 °FPartly sunny.17 mph54%30.12 "Hg19 mi
Weather by CustomWeather, © 2015

See weather overviewHow to use our weather pages